Regional Weather Roundup
Issued by NWS Sterling, VA

Home | Current Version | Previous Version | Text Only | Print | Product List | Glossary On
Versions: 1 2 3 4 5 6 7 8 9 10 11 12 13 14 15 16 17 18 19 20 21 22 23 24 25 26 27
000
ASUS41 KLWX 280911
RWRLWX

REGIONAL WEATHER ROUNDUP
NATIONAL WEATHER SERVICE BALTIMORE MD/WASHINGTON DC
500 AM EDT SUN MAY 28 2017

Note: "FAIR" indicates few or no clouds below 12,000 feet
with no significant weather and/or obstructions to visibility.
 TC=TEMPERATURE CELSIUS

 * =Non NWS site. Station does not report precipitation (e.g. rain,
    snow, etc.), thunder, or fog.

DCZ001-MDZ009-015-VAZ040>042-051-053>054-281000-
WASHINGTON METRO

CITY           SKY/WX    TMP DP  RH WIND       PRES   REMARKS
WASHINGTON NAT CLOUDY    62  61  96 NE5       29.87F
DULLES         CLEAR     59  57  93 NE6       29.86F
ANDREWS AFB    FOG       57  57 100 NE3       29.85F VSB 3/4
FT BELVOIR     CLOUDY    59  57  94 CALM      29.85F
QUANTICO       PTCLDY    65  63  93 E8        29.86F
COLLEGE PARK*  PTCLDY    57  56  97 CALM      29.87S
LEESBURG*      FOG       59  59 100 CALM      29.88F VSB 1/2
MANASSAS*      CLEAR     60  58  92 N5        29.87S
GAITHERSBURG*  CLOUDY    56  56 100 CALM      29.88F FOG

$$

MDZ006>007-011-014-281000-
BALTIMORE METRO

CITY           SKY/WX    TMP DP  RH WIND       PRES   REMARKS
BWI AIRPORT    CLOUDY    58  58 100 CALM      29.86F
MD SCIENCE CTR   N/A     63  61  93 MISG      29.86F
MARTIN STATE   PTCLDY    61  61 100 CALM      29.88F
ANNAPOLIS      CLOUDY    65  60  84 SE9       29.85F
FORT MEADE*    CLOUDY    54  54 100 CALM      29.89F

$$

MDZ012-015-019>023-281000-
MARYLAND EASTERN SHORE

CITY           SKY/WX    TMP DP  RH WIND       PRES   REMARKS
OCEAN CITY     CLEAR     59  56  89 CALM      29.87F
SALISBURY      CLEAR     58  56  93 CALM      29.86F
BAY BRIDGE AP* CLOUDY    61  55  82 SE5       29.86F
CAMBRIDGE*     MOCLDY    57  57 100 CALM      29.86F
EASTON*        CLOUDY    59  55  88 CALM      29.90F

$$

MDZ017>025-281000-
SOUTHERN MARYLAND

CITY           SKY/WX    TMP DP  RH WIND       PRES   REMARKS
PATUXENT RIVER CLOUDY    64  62  93 E9        29.85F
ST INIGOES     CLOUDY    62  60  93 E3        29.84F
LEONARDTOWN*   CLOUDY    59  57  94 CALM      29.87S

$$

MDZ003>005-281000-
NORTH CENTRAL MARYLAND

CITY           SKY/WX    TMP DP  RH WIND       PRES   REMARKS
FREDERICK*     FOG       61  61 100 N3        29.90F VSB 1/4
HAGERSTOWN APT FOG       57  57 100 NW3       29.86F VSB 1/4
WESTMINSTER*   PTCLDY    57  57 100 CALM      29.88S FOG

$$

MDZ501>502-281000-
WESTERN MARYLAND

CITY           SKY/WX    TMP DP  RH WIND       PRES   REMARKS
OAKLAND*       FOG       55  55 100 SE7       29.90F VSB 1/4
CUMBERLAND*    CLOUDY    61  61 100 CALM      29.90F VSB 1/2

$$

VAZ025>031-281000-
SHENANDOAH VALLEY

CITY           SKY/WX    TMP DP  RH WIND       PRES   REMARKS
WINCHESTER*    FOG       59  59 100 CALM      29.87S VSB<1/4
FRONT ROYAL*   CLOUDY    61  61 100 W3        29.86R
LURAY*         CLOUDY    61  61 100 CALM      29.87R
NEW MARKET*    CLOUDY    61  60  96 CALM      29.86S
STAUNTON*      CLOUDY    62  61  96 CALM      29.90R FOG
WAYNESBORO*    CLOUDY    60  60 100 CALM      29.88S

$$

WVZ021-048>050-054>055-281000-
EASTERN WEST VIRGINIA PANHANDLE

CITY           SKY/WX    TMP DP  RH WIND       PRES   REMARKS
MARTINSBURG    FOG       58  58 100 CALM      29.87R VSB 1/4
PETERSBURG*    CLOUDY    64  64  99 CALM      29.87S FOG

$$

VAZ036>039-050-281000-
CENTRAL FOOTHILLS

CITY           SKY/WX    TMP DP  RH WIND       PRES   REMARKS
CHARLOTTESVILL CLOUDY    63  62  97 CALM      29.86S FOG
CULPEPER*      MOCLDY    60  60 100 CALM      29.87R FOG
ORANGE*        CLOUDY    59  59 100 CALM      29.87R FOG
GORDONSVILLE*  MOCLDY    60  60 100 CALM      29.86S
WARRENTON*     CLOUDY    61  58  89 CALM      29.86R

$$

VAZ055>057-281000-
NORTH AND CENTRAL PIEDMONT

CITY           SKY/WX    TMP DP  RH WIND       PRES   REMARKS
FREDERICKSBRG* CLOUDY    63  63 100 CALM      29.85R
STAFFORD*      MOCLDY    58  58 100 CALM      29.89S

$$

NCZ024-NYZ072-PAZ021-071-VAZ022-071-281000-
OTHER REGIONAL OBSERVATIONS

CITY           SKY/WX    TMP DP  RH WIND       PRES   REMARKS
NEW YORK CITY  CLOUDY    59  57  93 NE5       29.93R
PHILADELPHIA   MOCLDY    63  60  90 W3        29.89S
PITTSBURGH     FOG       58  58 100 CALM      29.85S VSB 1/4
ROANOKE        CLOUDY    67  66  97 CALM      29.88S
RICHMOND       FOG       65  64  97 NE6       29.83S VSB 1/2
RALEIGH        CLOUDY    68  66  93 W3        29.85R

$$

ANZ530>537-281000-
MARINE OBSERVATIONS

STATION/POSITION TIME  TEMP    WIND        PRES
                       AIR SEA DIR/SP/G
                 (UTC) (F)     (DEG/KT/KT) (MB)
THOMAS PT LIGHT  0900   63 65  130/  8/  9   N/A
BALT KEY BRIDGE  0848   63      70/  4/  5 1011.3F
COVE POINT       0848   64     120/  7/  9 1011.5F
LEWISETTA        0848   66 70  110/ 11/ 12 1010.4F
SOLOMONS ISLAND  0848          100/  9/ 10   N/A
PINEY POINT      0848          110/  8/  9   N/A

$$





USA.gov is the U.S. government's official web portal to all federal, state and local government web resources and services.